Weather History for KHYR - May, 2013

Change the Weather History Date:

Thursday, May 2, 2013

  Actual Average Record
Temperature  
Mean Temperature 32 °F -  
Max Temperature 33 °F 75 °F 78 °F (2012)
Min Temperature 30 °F 41 °F 21 °F (2003)
Degree Days  
Heating Degree Days 34    
Moisture  
Dew Point 28 °F    
Average Humidity 90    
Maximum Humidity 100    
Minimum Humidity 85    
Precipitation  
Precipitation 0.93 in - - ()
Sea Level Pressure  
Sea Level Pressure 30.50 in    
Wind  
Wind Speed 4 mph (NNE)    
Max Wind Speed 7 mph    
Max Gust Speed -    
Visibility 2 miles    
Events Fog , Snow    
Averages and records for this station are not official NWS values.
T = Trace of Precipitation, MM = Missing Value Source: NWS Daily Summary

Daily Weather History Graph

Daily Weather History Graph

Search for Another Location

Airport or City:

Trip Planner

Search our weather history database for the weather conditions in past years. The results will help you decide how hot, cold, wet, or windy it might be!

Date:

Astronomy

May. 02, 2013 Rise Set
Actual Time 5:50 AM CDT 8:15 PM CDT
Civil Twilight 5:17 AM CDT 8:48 PM CDT
Nautical Twilight 4:35 AM CDT 9:30 PM CDT
Astronomical Twilight 3:48 AM CDT 10:18 PM CDT
Moon 2:02 AM CDT (5/2) 12:42 PM CDT (5/2)
Length of Visible Light 15h 31m
Length of Day
14h 24m
Waning Gibbous, 47% of the Moon is Illuminated
May 2
Waning Gibbous
May 9
New
May 17
First Quarter
May 24
Full
May 31
Last Quarter

Hourly Weather History & Observations

Time (CDT) Temp. Windchill Dew Point Humidity Pressure Visibility Wind Dir Wind Speed Gust Speed Precip Events Conditions
12:05 AM 33.8 °F 29.6 °F 30.2 °F 87% 30.47 in 2.5 mi North 4.6 mph - 0.00 in Snow Light Snow
12:15 AM 33.8 °F 30.8 °F 30.2 °F 87% 30.46 in 1.2 mi Variable 3.5 mph - 0.00 in Snow Light Snow
12:26 AM 32.0 °F 28.7 °F 30.2 °F 93% 30.47 in 1.0 mi Variable 3.5 mph - 0.01 in Snow Light Snow
12:36 AM 32.0 °F 28.7 °F 30.2 °F 93% 30.48 in 1.0 mi Variable 3.5 mph - 0.02 in Snow Light Snow
12:51 AM 32.0 °F 27.5 °F 30.2 °F 93% 30.47 in 0.8 mi Variable 4.6 mph - 0.04 in Snow Light Snow
12:53 AM 32.0 °F 27.5 °F 30.0 °F 92% 30.53 in 0.8 mi Variable 4.6 mph - 0.04 in Snow Light Snow
1:07 AM 32.0 °F 28.7 °F 30.2 °F 93% 30.48 in 0.8 mi Variable 3.5 mph - 0.01 in Snow Light Snow
1:53 AM 32.0 °F 28.7 °F 30.0 °F 92% 30.53 in 0.5 mi Variable 3.5 mph - 0.09 in Fog , Snow Snow
2:40 AM 30.2 °F 26.7 °F 30.2 °F 100% 30.49 in 0.5 mi Variable 3.5 mph - 0.08 in Fog , Snow Snow
2:53 AM 30.9 °F 27.5 °F 30.0 °F 96% 30.54 in 0.5 mi North 3.5 mph - 0.11 in Fog , Snow Snow
3:24 AM 30.2 °F 23.4 °F 28.4 °F 93% 30.48 in 0.5 mi North 6.9 mph - 0.04 in Fog , Snow Snow
3:53 AM 30.9 °F 26.2 °F 28.9 °F 92% 30.54 in 0.8 mi Variable 4.6 mph - 0.07 in Snow Light Snow
4:53 AM 30.0 °F - 28.0 °F 92% 30.53 in 1.0 mi Calm Calm - 0.06 in Snow Light Snow
5:02 AM 30.2 °F - 28.4 °F 93% 30.48 in 0.5 mi Calm Calm - 0.02 in Fog , Snow Snow
5:30 AM 30.2 °F 25.4 °F 28.4 °F 93% 30.48 in 0.5 mi Variable 4.6 mph - 0.07 in Fog , Snow Snow
5:53 AM 30.0 °F 25.2 °F 28.0 °F 92% 30.53 in 0.5 mi Variable 4.6 mph - 0.10 in Fog , Snow Snow
6:00 AM 30.2 °F 24.3 °F 26.6 °F 86% 30.48 in 0.5 mi Variable 5.8 mph - 0.01 in Fog , Snow Snow
6:30 AM 30.2 °F 26.7 °F 28.4 °F 93% 30.50 in 0.5 mi Variable 3.5 mph - 0.07 in Fog , Snow Snow
6:45 AM 30.2 °F 24.3 °F 28.4 °F 93% 30.49 in 0.5 mi Variable 5.8 mph - 0.11 in Fog , Snow Snow
6:53 AM 30.0 °F - 28.0 °F 92% 30.54 in 0.2 mi Calm Calm - 0.14 in Fog , Snow Heavy Snow
7:53 AM 30.0 °F 26.5 °F 28.0 °F 92% 30.54 in 0.2 mi Variable 3.5 mph - 0.20 in Fog , Snow Heavy Snow
8:17 AM 30.2 °F 26.7 °F 28.4 °F 93% 30.50 in 0.2 mi Variable 3.5 mph - 0.04 in Fog , Snow Snow
8:29 AM 30.2 °F 26.7 °F 28.4 °F 93% 30.50 in 0.2 mi Variable 3.5 mph - 0.05 in Fog , Snow Snow
8:53 AM 30.0 °F 25.2 °F 27.0 °F 88% 30.56 in 0.5 mi Variable 4.6 mph - 0.07 in Fog , Snow Snow
9:06 AM 30.2 °F 25.4 °F 26.6 °F 86% 30.50 in 0.5 mi Variable 4.6 mph - 0.01 in Fog , Snow Light Snow
9:14 AM 30.2 °F 24.3 °F 26.6 °F 86% 30.50 in 0.8 mi Variable 5.8 mph - 0.01 in Snow Light Snow
9:53 AM 30.0 °F 25.2 °F 27.0 °F 88% 30.55 in 0.8 mi Variable 4.6 mph - 0.03 in Snow Light Snow
10:46 AM 30.2 °F 25.4 °F 28.4 °F 93% 30.51 in 1.0 mi Variable 4.6 mph - 0.02 in Snow Light Snow
10:53 AM 30.9 °F 24.3 °F 28.0 °F 89% 30.56 in 1.0 mi Variable 6.9 mph - 0.02 in Snow Light Snow
11:00 AM 30.2 °F 23.4 °F 28.4 °F 93% 30.51 in 0.8 mi Variable 6.9 mph - 0.00 in Snow Light Snow
6:22 PM 30.2 °F 24.3 °F 26.6 °F 86% 30.45 in 3.0 mi NE 5.8 mph - N/A Snow Light Snow
6:33 PM 30.2 °F 25.4 °F 26.6 °F 86% 30.45 in 8.0 mi NE 4.6 mph - N/A   Overcast
6:53 PM 30.9 °F 25.2 °F 27.0 °F 85% 30.50 in 10.0 mi NNE 5.8 mph - N/A   Overcast
7:53 PM 30.9 °F 26.2 °F 27.0 °F 85% 30.50 in 8.0 mi NNE 4.6 mph - N/A   Overcast
8:53 PM 30.0 °F 23.2 °F 27.0 °F 88% 30.50 in 10.0 mi Variable 6.9 mph - 0.00 in   Overcast
9:53 PM 30.0 °F - 27.0 °F 88% 30.50 in 10.0 mi Calm Calm - N/A   Overcast
10:53 PM 30.0 °F 25.2 °F 27.0 °F 88% 30.49 in 10.0 mi Variable 4.6 mph - N/A   Overcast
11:18 PM 30.2 °F - 26.6 °F 86% 30.42 in 7.0 mi Calm Calm - 0.00 in Snow Light Snow
11:53 PM 30.0 °F 25.2 °F 27.0 °F 88% 30.47 in 6.0 mi Variable 4.6 mph - 0.00 in Snow Light Snow